Location: Darmstadt
(49.8706°N, 8.6494°E)
Time: 07:29:45
(UTC+01:00)

Cosmos 1331 Rocket - Pass Details

Date: 31 October 2020
Orbit: 749 x 778 km, 74.0° (Epoch: 03 December)

Event Time Altitude Azimuth Distance (km) Brightness Sun altitude
Rises 17:48:29 0° 212° (SSW) 3,188 8.0 -7.7°
Reaches altitude 10° 17:50:52 10° 216° (SW) 2,266 7.2 -8.1°
Maximum altitude 17:55:57 63° 297° (WNW) 840 4.5 -8.9°
Drops below altitude 10° 18:01:05 10° 19° (NNE) 2,283 6.2 -9.7°
Sets 18:03:29 0° 23° (NNE) 3,214 6.9 -10.1°
